This is the latest recevied weather packets stored in our database for station/object K5NWZ. If no packets are shown the sender has not sent any weather packets the latest 1 day(s).
| Time | Temp. | Humidity | Pressure | Rain* | Wind** | Luminosity | Snow |
|---|---|---|---|---|---|---|---|
| 1777993090 | 0.56° C | 96% | 1024.6 hPa | 0 mm | 0.45 m/s, 266° | 51 W/m² | - |
| 1777992789 | 0.56° C | 96% | 1024.7 hPa | 0 mm | 0 m/s | 46 W/m² | - |
| 1777992486 | 0.56° C | 96% | 1024.5 hPa | 0 mm | 0 m/s | 45 W/m² | - |
| 1777992185 | 0.56° C | 96% | 1024.2 hPa | 0 mm | 0 m/s | 49 W/m² | - |
| 1777991881 | 0.56° C | 96% | 1024.6 hPa | 0 mm | 0 m/s | 54 W/m² | - |
| 1777991579 | 0.56° C | 96% | 1024.6 hPa | 0 mm | 0 m/s | 42 W/m² | - |
| 1777991276 | 0.56° C | 96% | 1024.7 hPa | 0 mm | 0 m/s | 38 W/m² | - |
| 1777990973 | 0.56° C | 96% | 1024.6 hPa | 0 mm | 0 m/s | 44 W/m² | - |
| 1777990671 | 0.56° C | 96% | 1024.4 hPa | 0 mm | 0 m/s | 45 W/m² | - |
| 1777990368 | 0.56° C | 96% | 1024.6 hPa | 0 mm | 0 m/s | 39 W/m² | - |
| 1777990063 | 0.56° C | 96% | 1024.4 hPa | 0 mm | 0 m/s | 31 W/m² | - |
| 1777989761 | 0.56° C | 96% | 1024.5 hPa | 0 mm | 0 m/s | 28 W/m² | - |
| 1777989457 | 0.56° C | 96% | 1024.6 hPa | 0 mm | 0 m/s | 28 W/m² | - |
| 1777989154 | 0.56° C | 96% | 1024.7 hPa | 0 mm | 0 m/s | 29 W/m² | - |
| 1777988850 | 0.56° C | 96% | 1024.6 hPa | 0 mm | 0 m/s | 30 W/m² | - |
| 1777988547 | 0.56° C | 96% | 1024.5 hPa | 0 mm | 0 m/s | 28 W/m² | - |
| 1777988244 | 0° C | 96% | 1024.7 hPa | 0 mm | 0 m/s | 28 W/m² | - |
| 1777987941 | 0° C | 96% | 1024.4 hPa | 0 mm | 0 m/s | 23 W/m² | - |
| 1777987636 | 0° C | 96% | 1024.1 hPa | 0 mm | 0 m/s | 15 W/m² | - |
| 1777987334 | 0° C | 96% | 1024.4 hPa | 0 mm | 0.45 m/s, 317° | 11 W/m² | - |
| 1777987031 | 0° C | 96% | 1024.4 hPa | 0 mm | 0 m/s | 10 W/m² | - |
| 1777986729 | 0° C | 96% | 1024.2 hPa | 0 mm | 0 m/s | 9 W/m² | - |
| 1777986426 | 0° C | 95% | 1024 hPa | 0 mm | 0 m/s | 6 W/m² | - |
| 1777986124 | 0° C | 95% | 1024.1 hPa | 0 mm | 0 m/s | 3 W/m² | - |
| 1777985820 | 0° C | 95% | 1024.1 hPa | 0 mm | 0 m/s | 2 W/m² | - |
* Rain latest hour (hover to see other rain measurements)
** Current wind speed in m/s (hover to see current wind gust speed)